When you browse on this site, cookies collect data to enhance your experience and personalize the content and advertising you see.
Visit our Privacy Policy to learn more. By continuing to use the site, you agree to this use of cookies and data.
  • En España
  • Lista de países
  • Para 7 días
  • Temperatura del agua
  • El tiempo en el mapa
  • Informadores
  • user-avatar
    Iniciar sesión

    Tiempo cada hora Melbourne

    Hoy, 29 Marzo, Domingo

    Tiempo Temperatura Precipitaciones Viento Presión Humedad
    00:00 +23°C° 0 mm 5 mps 760 mmHg 41%
    01:00 +22°C° 0 mm 5 mps 760 mmHg 38%
    02:00 +22°C° 0 mm 5 mps 759 mmHg 40%
    03:00 +22°C° 0 mm 6 mps 759 mmHg 42%
    04:00 +22°C° 0 mm 6 mps 758 mmHg 44%
    05:00 +21°C° 0 mm 6 mps 758 mmHg 46%
    06:00 +21°C° 0 mm 6 mps 758 mmHg 49%
    07:00 +21°C° 0 mm 6 mps 758 mmHg 52%
    08:00 +22°C° 0 mm 7 mps 758 mmHg 51%
    09:00 +23°C° 0 mm 7 mps 758 mmHg 50%
    10:00 +26°C° 0 mm 7 mps 757 mmHg 49%
    11:00 +27°C° 0.2 mm 7 mps 757 mmHg 47%
    12:00 +28°C° 0.2 mm 7 mps 756 mmHg 45%
    13:00 +29°C° 0.2 mm 8 mps 756 mmHg 43%
    14:00 +27°C° 2.2 mm 6 mps 755 mmHg 52%
    15:00 +25°C° 2.2 mm 5 mps 755 mmHg 61%
    16:00 +22°C° 0 mm 5 mps 755 mmHg 68%
    17:00 +21°C° 0.1 mm 5 mps 755 mmHg 71%
    18:00 +21°C° 0.1 mm 5 mps 755 mmHg 75%
    19:00 +21°C° 0.1 mm 5 mps 756 mmHg 79%
    20:00 +20°C° 0 mm 4 mps 756 mmHg 80%
    21:00 +20°C° 0 mm 3 mps 756 mmHg 81%
    22:00 +19°C° 0 mm 4 mps 757 mmHg 82%
    23:00 +19°C° 0 mm 3 mps 757 mmHg 83%

    Mañana, 30 Marzo, Lunes

    Tiempo Temperatura Precipitaciones Viento Presión Humedad
    00:00 +19°C° 0 mm 3 mps 757 mmHg 85%
    01:00 +18°C° 0 mm 2 mps 757 mmHg 86%
    02:00 +19°C° 0 mm 1 mps 757 mmHg 85%
    03:00 +19°C° 0 mm 1 mps 756 mmHg 85%
    04:00 +19°C° 0 mm 1 mps 756 mmHg 84%
    05:00 +17°C° 0 mm 2 mps 757 mmHg 83%
    06:00 +17°C° 0 mm 2 mps 757 mmHg 81%
    07:00 +17°C° 0 mm 3 mps 758 mmHg 80%
    08:00 +18°C° 0 mm 3 mps 758 mmHg 72%
    09:00 +19°C° 0 mm 3 mps 758 mmHg 63%
    10:00 +20°C° 0 mm 3 mps 758 mmHg 55%
    11:00 +21°C° 0 mm 3 mps 758 mmHg 52%
    12:00 +21°C° 0 mm 3 mps 758 mmHg 48%
    13:00 +22°C° 0 mm 3 mps 758 mmHg 45%
    14:00 +23°C° 0 mm 2 mps 758 mmHg 44%
    15:00 +23°C° 0 mm 2 mps 757 mmHg 43%
    16:00 +23°C° 0 mm 2 mps 757 mmHg 43%
    17:00 +21°C° 0 mm 2 mps 758 mmHg 47%
    18:00 +20°C° 0 mm 2 mps 758 mmHg 50%
    19:00 +19°C° 0 mm 2 mps 759 mmHg 54%
    20:00 +19°C° 0 mm 2 mps 759 mmHg 56%
    21:00 +18°C° 0 mm 2 mps 760 mmHg 58%
    22:00 +18°C° 0 mm 1 mps 760 mmHg 61%
    23:00 +17°C° 0 mm 2 mps 760 mmHg 64%

    Pasado mañana, 31 Marzo, Martes

    Tiempo Temperatura Precipitaciones Viento Presión Humedad
    00:00 +16°C° 0 mm 2 mps 760 mmHg 66%
    01:00 +16°C° 0 mm 2 mps 760 mmHg 69%
    02:00 +15°C° 0 mm 2 mps 760 mmHg 72%
    03:00 +15°C° 0 mm 2 mps 760 mmHg 75%
    04:00 +15°C° 0 mm 2 mps 760 mmHg 77%
    05:00 +14°C° 0 mm 2 mps 761 mmHg 78%
    06:00 +14°C° 0 mm 1 mps 762 mmHg 80%
    07:00 +14°C° 0 mm 1 mps 762 mmHg 81%
    08:00 +16°C° 0 mm 1 mps 762 mmHg 72%
    09:00 +19°C° 0 mm 1 mps 762 mmHg 64%
    10:00 +21°C° 0 mm 1 mps 762 mmHg 55%
    11:00 +22°C° 0 mm 1 mps 762 mmHg 51%
    12:00 +23°C° 0 mm 1 mps 762 mmHg 46%
    13:00 +24°C° 0 mm 2 mps 762 mmHg 42%
    14:00 +24°C° 0 mm 2 mps 761 mmHg 42%
    15:00 +24°C° 0 mm 2 mps 761 mmHg 43%
    16:00 +24°C° 0 mm 2 mps 761 mmHg 43%
    17:00 +23°C° 0 mm 2 mps 761 mmHg 48%
    18:00 +20°C° 0 mm 2 mps 761 mmHg 54%
    19:00 +19°C° 0 mm 2 mps 762 mmHg 59%
    20:00 +18°C° 0 mm 2 mps 762 mmHg 63%
    21:00 +17°C° 0 mm 2 mps 762 mmHg 66%
    22:00 +17°C° 0 mm 2 mps 763 mmHg 69%
    23:00 +16°C° 0 mm 2 mps 763 mmHg 70%

    1 Abril, Miércoles

    Tiempo Temperatura Precipitaciones Viento Presión Humedad
    00:00 +16°C° 0 mm 1 mps 763 mmHg 72%
    01:00 +15°C° 0 mm 1 mps 763 mmHg 74%
    02:00 +15°C° 0 mm 1 mps 763 mmHg 75%
    03:00 +15°C° 0 mm 1 mps 762 mmHg 76%
    04:00 +15°C° 0 mm 1 mps 762 mmHg 78%
    05:00 +15°C° 0 mm 1 mps 762 mmHg 78%
    06:00 +14°C° 0 mm 1 mps 762 mmHg 77%
    07:00 +14°C° 0 mm 1 mps 763 mmHg 77%
    08:00 +16°C° 0 mm 0 mps 762 mmHg 68%
    09:00 +19°C° 0 mm 0 mps 762 mmHg 58%
    10:00 +21°C° 0 mm 0 mps 762 mmHg 48%
    11:00 +24°C° 0 mm 1 mps 762 mmHg 44%
    12:00 +26°C° 0 mm 1 mps 761 mmHg 40%
    13:00 +27°C° 0 mm 2 mps 761 mmHg 36%
    14:00 +27°C° 0 mm 2 mps 761 mmHg 37%
    15:00 +27°C° 0 mm 3 mps 760 mmHg 38%
    16:00 +26°C° 0 mm 3 mps 760 mmHg 40%
    17:00 +25°C° 0 mm 3 mps 760 mmHg 48%
    18:00 +22°C° 0 mm 3 mps 760 mmHg 55%
    19:00 +20°C° 0 mm 3 mps 760 mmHg 63%
    20:00 +20°C° 0 mm 2 mps 760 mmHg 66%
    21:00 +19°C° 0 mm 2 mps 760 mmHg 69%
    22:00 +19°C° 0 mm 2 mps 760 mmHg 72%
    23:00 +19°C° 0.4 mm 2 mps 760 mmHg 76%

    2 Abril, Jueves

    Tiempo Temperatura Precipitaciones Viento Presión Humedad
    00:00 +18°C° 0.4 mm 2 mps 759 mmHg 81%
    01:00 +19°C° 0.4 mm 1 mps 759 mmHg 85%
    02:00 +19°C° 1.4 mm 1 mps 758 mmHg 87%
    03:00 +18°C° 1.4 mm 1 mps 758 mmHg 89%
    04:00 +18°C° 1.4 mm 1 mps 757 mmHg 91%
    05:00 +18°C° 0.7 mm 1 mps 757 mmHg 91%
    06:00 +17°C° 0.7 mm 2 mps 757 mmHg 90%
    07:00 +17°C° 0.7 mm 2 mps 757 mmHg 90%
    08:00 +17°C° 0.4 mm 2 mps 757 mmHg 89%
    09:00 +17°C° 0.4 mm 2 mps 756 mmHg 88%
    10:00 +19°C° 0.4 mm 1 mps 756 mmHg 87%
    11:00 +19°C° 0.2 mm 1 mps 756 mmHg 86%
    12:00 +19°C° 0.2 mm 1 mps 755 mmHg 86%
    13:00 +19°C° 0.2 mm 1 mps 755 mmHg 85%
    14:00 +19°C° 0.2 mm 1 mps 755 mmHg 84%
    15:00 +19°C° 0.2 mm 2 mps 754 mmHg 83%
    16:00 +19°C° 0.2 mm 2 mps 754 mmHg 82%
    17:00 +18°C° 0.3 mm 2 mps 754 mmHg 84%
    18:00 +18°C° 0.3 mm 2 mps 755 mmHg 87%
    19:00 +17°C° 0.3 mm 2 mps 755 mmHg 89%
    20:00 +18°C° 0.1 mm 1 mps 755 mmHg 89%
    21:00 +18°C° 0.1 mm 1 mps 755 mmHg 89%
    22:00 +16°C° 0.1 mm 0 mps 755 mmHg 90%
    23:00 +16°C° 0 mm 0 mps 755 mmHg 90%

    3 Abril, Viernes

    Tiempo Temperatura Precipitaciones Viento Presión Humedad
    00:00 +18°C° 0 mm 1 mps 755 mmHg 90%
    01:00 +16°C° 0 mm 1 mps 754 mmHg 90%
    02:00 +16°C° 0 mm 1 mps 754 mmHg 89%
    03:00 +16°C° 0 mm 2 mps 754 mmHg 89%
    04:00 +15°C° 0 mm 2 mps 753 mmHg 88%
    05:00 +15°C° 0 mm 2 mps 753 mmHg 87%
    06:00 +14°C° 0 mm 3 mps 753 mmHg 87%
    07:00 +16°C° 0 mm 3 mps 753 mmHg 86%
    08:00 +18°C° 0 mm 4 mps 753 mmHg 78%
    09:00 +20°C° 0 mm 5 mps 753 mmHg 69%
    10:00 +22°C° 0 mm 5 mps 752 mmHg 61%
    11:00 +23°C° 0 mm 5 mps 752 mmHg 55%
    12:00 +25°C° 0 mm 5 mps 751 mmHg 50%
    13:00 +27°C° 0 mm 5 mps 750 mmHg 44%
    14:00 +27°C° 0 mm 5 mps 750 mmHg 44%
    15:00 +27°C° 0 mm 5 mps 749 mmHg 43%
    16:00 +27°C° 0 mm 5 mps 748 mmHg 42%
    17:00 +26°C° 0 mm 5 mps 748 mmHg 46%
    18:00 +25°C° 0 mm 5 mps 748 mmHg 50%
    19:00 +23°C° 0 mm 5 mps 748 mmHg 53%
    20:00 +22°C° 0.1 mm 6 mps 747 mmHg 59%
    21:00 +22°C° 0.1 mm 6 mps 746 mmHg 64%
    22:00 +21°C° 0.1 mm 6 mps 746 mmHg 70%
    23:00 +21°C° 0.9 mm 6 mps 745 mmHg 74%
    Mostrar más